Location: Brieis
(44.4667°N, 7.1000°E)
Time: 14:15:49
(UTC+00:00)

Daily predictions for brighter satellites

Satellite Brightness Start Highest point End
(mag) Time Altitude Azimuth Time Altitude Azimuth Time Altitude Azimuth
IGS 5A 4.5 19:47:56 10° S 19:51:55 47° W 19:55:55 10° NNW
Resurs 01 Rocket 1.7 19:48:48 10° SSE 19:53:13 72° ENE 19:57:40 10° N
H-2A R/B 3.7 19:52:55 10° SSW 19:56:27 37° W 20:00:04 10° NNW
GEOS 3 Rocket 3.6 19:53:27 10° SE 19:58:32 81° NE 20:03:40 10° NW
USA 32 4.0 19:56:11 10° S 20:01:20 70° E 20:06:33 10° N
NOSS 2-1 (E) 4.4 19:56:43 10° NW 20:01:32 73° SW 20:08:25 10° SSE
Cosmos 1656 3.7 19:56:57 10° NNW 20:02:28 76° ENE 20:08:00 10° SSE
SPOT 5 4.0 19:59:16 10° ESE 20:02:44 24° ENE 20:06:10 10° NNE
Terra 3.5 20:01:35 10° ESE 20:04:59 20° ENE 20:08:24 10° NNE
CZ-4B R/B 0.9 20:06:00 10° NNE 20:08:52 64° ESE 20:11:44 10° S
MetOp-B 4.3 20:03:46 10° SSE 20:09:02 64° ENE 20:14:21 10° N
SPOT 1/Viking Rocket 3.6 20:04:02 10° SSE 20:09:11 88° ENE 20:14:23 10° NNW
H-2A R/B 2.4 20:06:57 10° N 20:11:24 76° WNW 20:15:52 10° SSW
Cosmos 1536 Rocket 3.6 20:09:31 10° S 20:13:46 58° E 20:18:04 10° NNE
Lacrosse 5 rocket 3.8 20:12:23 10° W 20:14:03 12° WSW 20:15:46 10° SSW
USA 245 3.7 20:12:24 10° SE 20:16:11 42° ENE 20:19:19 10° N
CARTOSAT-1 3.7 20:13:11 10° SSE 20:17:25 62° ENE 20:21:42 10° N
Cosmos 1980 Rocket 3.5 20:13:50 10° N 20:18:46 29° NE 20:23:38 10° ESE
Cosmos 1697 Rocket 3.1 20:13:21 10° NNW 20:18:50 51° ENE 20:23:48 12° SE
Cosmos 1452 Rocket 3.5 20:16:47 10° SSW 20:22:02 88° ESE 20:27:20 10° NNE
USA 276 4.1 20:20:12 10° WNW 20:22:52 27° N 20:25:32 10° ENE
ARIANE 5 R/B 4.3 20:21:13 10° ESE 20:24:27 20° ENE 20:27:42 10° NNE
Lacrosse 5 3.3 20:21:46 10° WNW 20:26:07 29° SW 20:30:28 10° S
ERS-1 Rocket 3.7 20:22:20 12° SE 20:26:32 39° ENE 20:31:12 10° N
Cosmos 1110 Rocket 4.0 20:21:39 10° S 20:26:50 63° ESE 20:32:05 10° NNE
SL-24 R/B 4.4 20:25:59 10° S 20:30:21 76° WSW 20:35:23 10° NNW
COSMOS 2406 3.6 20:25:35 10° S 20:30:59 43° ESE 20:36:23 10° NE
Cosmos 2074 Rocket 4.0 20:33:07 10° N 20:39:26 85° E 20:45:29 11° S
Cosmos 1833 Rocket 2.7 20:36:11 10° SSW 20:41:48 88° ESE 20:47:27 10° NNE
Cosmos 1726 Rocket 4.4 20:38:21 10° N 20:42:19 34° ENE 20:44:55 18° SE
Cosmos 968 Rocket 4.4 20:38:01 10° N 20:42:52 37° ENE 20:46:32 16° ESE
Cosmos 1703 3.2 20:39:50 10° S 20:43:40 82° W 20:47:33 10° N
Cosmos 1408 4.1 20:45:32 17° ESE 20:46:23 18° E 20:48:50 10° NE
Nadezhda 1 Rocket 4.0 20:42:53 10° S 20:48:53 66° E 20:54:55 10° NNE
Cosmos 192 4.5 20:47:31 10° S 20:52:13 52° ESE 20:56:59 10° NNE
Cosmos 2322 Rocket 4.5 20:51:20 10° N 20:54:08 14° NE 20:56:55 10° ENE
USA 267 4.2 20:49:15 10° ENE 20:54:26 25° SE 20:58:22 15° S
Cosmos 1825 4.3 20:54:14 12° E 20:54:43 12° E 20:56:10 10° ENE
Cosmos 1295 Rocket 4.5 20:49:26 10° N 20:55:41 76° E 21:00:32 17° SSE
RESURS DK-1 3.2 20:52:09 10° NW 20:56:06 44° WSW 20:59:05 16° S
Cosmos 1867 4.1 20:56:27 10° NNW 21:01:49 52° NE 21:05:33 19° ESE
Cosmos 2084 Rocket 3.2 21:00:51 10° NW 21:04:47 83° NE 21:06:56 27° SE
Helios 1A Rocket 2.9 21:03:00 22° SSE 21:05:37 86° W 21:09:44 10° NNW
X-37B 0.6 21:03:00 10° W 21:05:43 46° SSW 21:06:14 40° SSE
SL-8 R/B 4.1 21:03:09 10° WNW 21:07:48 50° SSW 21:10:19 25° SSE
Meteor 1-11 4.5 21:07:11 21° SSE 21:10:42 49° E 21:16:04 10° NNE
Cosmos 2154 Rocket 4.1 21:06:11 10° N 21:12:24 78° W 21:17:21 17° S
Cosmos 1328 3.8 21:13:36 19° S 21:16:27 83° W 21:20:27 10° N
Cosmos 2082 Rocket 2.1 21:12:06 10° SSW 21:17:46 72° ESE 21:23:28 10° NNE
CZ-2C R/B 3.7 21:17:25 10° NNE 21:21:59 85° WNW 21:25:23 17° SSW
Cosmos 1892 Rocket 3.5 21:21:09 25° S 21:23:40 77° E 21:28:03 10° NNE
Cosmos 2228 4.1 21:20:18 10° NNW 21:24:16 39° W 21:27:18 16° SSW
Cosmos 2360 Rocket 4.4 21:26:09 10° N 21:29:35 16° NE 21:32:59 10° E
SL-8 Rocket 4.2 21:23:43 10° N 21:29:52 58° ENE 21:33:12 27° SSE
Resurs 01 Rocket 4.3 21:28:35 10° WSW 21:30:12 12° W 21:31:49 10° WNW
Cosmos 2058 Rocket 3.1 21:28:05 10° N 21:32:31 68° E 21:34:19 35° SSE
Cosmos 1626 Rocket 4.4 21:33:53 30° ESE 21:34:50 33° E 21:38:44 10° NNE
SAR-Lupe-1 4.3 21:34:02 10° NNE 21:37:31 48° E 21:38:01 44° SE
Cosmos 1633 4.4 21:38:43 17° E 21:38:43 17° E 21:40:46 10° NE
Cosmos 1992 Rocket 4.2 21:36:31 30° SSE 21:38:50 53° ESE 21:43:56 10° NNE
SPOT 5 3.9 21:37:57 17° SSW 21:40:40 34° W 21:44:37 10° NNW
Terra 2.4 21:39:42 24° SSW 21:42:21 52° W 21:47:01 10° NNW
Cosmos 1486 Rocket 4.4 21:37:57 10° NNW 21:43:05 54° ENE 21:45:24 30° SE
Cosmos 1892 2.5 21:44:17 43° S 21:45:27 90° ESE 21:49:15 10° N
SJ 16-02 3.2 21:44:13 10° N 21:47:36 21° ENE 21:49:28 16° E
FALCON 9 DEB 3.7 21:46:03 10° NW 21:49:15 49° NNE 21:50:08 37° ENE
Cosmos 2366 rocket 4.1 21:43:17 10° N 21:49:38 69° E 21:52:47 31° SSE
Cosmos 2218 Rocket 4.0 21:48:11 10° N 21:54:37 75° E 21:57:46 32° SSE
ASTEX 1 3.4 21:51:30 10° N 21:56:32 90° E 21:58:45 34° S
CSL-04 DEB 4.5 21:54:14 10° NNE 21:58:37 83° ESE 22:00:05 41° S
USA 276 3.1 21:56:10 10° NW 21:59:04 41° NNE 21:59:52 33° ENE
ADEOS Rocket 4.4 21:56:00 20° ESE 22:00:30 39° ENE 22:07:31 10° N
ARIANE 5 R/B 3.4 21:58:45 28° SSW 22:00:36 43° W 22:04:51 10° NNW
Cosmos 1697 Rocket 4.3 21:57:57 10° NW 22:02:26 25° WSW 22:05:32 16° SW
Cosmos 1980 Rocket 2.7 21:57:32 10° NW 22:03:01 50° WSW 22:05:29 30° SSW
GP-B 3.1 21:59:00 10° N 22:03:27 76° W 22:05:00 40° SSW
SL-16 R/B 2.8 21:59:01 10° NNW 22:04:32 49° ENE 22:07:09 28° ESE
Cosmos 1959 Rocket 4.4 22:01:12 10° N 22:07:21 89° E 22:10:08 35° S
ATLAS 5 CENTAUR R/B 1.4 22:08:26 29° SW 22:10:14 69° NW 22:14:22 10° NNE
SL-4 R/B 4.0 22:14:12 13° ENE 22:14:12 13° ENE 22:14:44 10° ENE
Cosmos 2341 Rocket 4.4 22:06:04 10° NNW 22:12:14 58° W 22:15:36 27° SSW
In-Cosmos 22 Rocket 4.3 22:14:44 28° SSW 22:17:43 68° WNW 22:23:08 10° N
Cosmos 1408 4.4 22:19:29 19° WSW 22:20:53 24° WNW 22:23:47 10° NNW
Okean 1-7 Rocket 3.8 22:19:50 40° SSW 22:21:18 66° W 22:25:48 10° N
Cosmos 1503 Rocket 4.1 22:16:04 10° NNW 22:21:21 69° ENE 22:23:03 42° SE
Cosmos 1758 Rocket 3.6 22:25:31 54° SE 22:26:03 59° E 22:30:22 10° NNE
Cosmos 1869 3.4 22:22:24 10° NNW 22:26:16 60° W 22:26:47 54° SW
Cosmos 1825 2.9 22:28:51 40° WSW 22:29:35 47° WNW 22:33:13 10° N
Spot 4 3.8 22:35:11 53° SSE 22:36:18 83° ENE 22:41:07 10° NNW
Cosmos 44 4.3 22:38:36 28° E 22:38:36 28° E 22:41:44 10° NE
USA 267 3.2 22:31:26 10° NE 22:38:01 86° SE 22:44:35 10° SW
Cosmos 1812 Rocket 3.5 22:33:58 10° N 22:38:27 86° WSW 22:39:08 63° S
Cosmos 2322 Rocket 2.4 22:33:41 10° NNW 22:39:21 65° ENE 22:41:25 39° SE
Cosmos-2242 2.8 22:38:28 10° N 22:42:44 83° E 22:43:11 70° SSE
BREEZE-M DEB (TANK) 4.3 22:39:40 10° WNW 22:43:03 63° NNE 22:56:25 10° ESE
Cosmos 1821 Rocket 3.9 22:37:57 10° N 22:44:13 86° E 22:46:22 43° S
Cosmos 1602 Rocket 3.9 22:48:53 46° SW 22:49:47 57° WNW 22:54:03 10° N
Cosmos 2333 Rocket 3.3 22:51:58 10° NNW 22:57:20 38° NE 23:00:27 22° ESE
ALOS 2 2.4 23:00:42 71° S 23:01:12 88° W 23:05:37 10° NNW
Cosmos 2082 Rocket 4.4 22:58:07 10° W 23:02:27 22° NW 23:06:47 10° N
Nadezhda 3 Rocket 3.9 23:02:12 42° SSW 23:04:26 81° W 23:10:38 10° N
Gbstr 26 Del rocket 2.9 23:05:10 72° SSW 23:05:32 80° SE 23:10:32 10° ENE
Cosmos 1340 Rocket 3.0 23:05:53 57° E 23:05:53 57° E 23:09:34 10° NNE
Cosmos 1606 2.9 23:07:37 10° NNW 23:11:18 61° W 23:11:18 61° W
USA 234 3.3 23:07:03 22° ESE 23:11:37 78° NE 23:18:12 10° NW
Cosmos 1633 4.1 23:12:29 26° W 23:12:40 26° WNW 23:15:39 10° NNW
Cosmos 2360 Rocket 2.2 23:08:50 10° NNW 23:14:32 79° ENE 23:16:14 47° SE
BREEZE-M DEB (TANK) 4.1 23:05:20 10° W 23:15:12 58° NNW 23:18:27 10° ENE
Cosmos 1953 Rocket 3.4 23:15:54 70° SE 23:16:12 74° E 23:20:37 10° NNE
Cosmos 1763 Rocket 4.4 23:21:39 33° ESE 23:22:11 34° E 23:26:55 10° NE
Cosmos 1825 Rocket 3.8 23:24:44 52° WSW 23:25:14 56° WNW 23:29:31 10° N
H-2A R/B 4.1 23:22:09 10° N 23:26:11 47° WNW 23:26:52 43° WSW
SJ 16-02 2.0 23:22:09 10° NNW 23:26:20 42° WSW 23:26:24 42° WSW
Cosmos 2058 3.3 23:28:04 52° W 23:28:24 54° W 23:32:31 10° N
Cosmos 1833 4.1 23:27:13 53° SSW 23:28:35 82° ESE 23:34:12 10° NNE
PSLV R/B 3.8 23:24:07 10° NNE 23:28:50 62° E 23:29:18 58° SE
Cosmos 1782 4.4 23:25:53 10° NNE 23:29:14 25° ENE 23:29:46 24° E
USA 290 4.3 23:35:59 10° N 23:38:35 22° ENE 23:38:48 22° ENE
Cosmos 2221 2.4 23:35:35 10° N 23:39:58 83° E 23:40:15 76° SE
COSMOS 2428 3.6 23:38:31 10° NNW 23:43:58 43° ENE 23:47:19 22° ESE
Cosmos 2297 Rocket 4.2 23:44:07 13° ESE 23:45:25 13° E 23:48:03 10° ENE
ADEOS Rocket 3.9 23:42:56 35° SSW 23:45:42 50° W 23:53:12 10° NNW
ISS -2.2 23:47:45 31° ENE 23:47:45 31° ENE 23:49:38 10° ENE
ERS-2 2.6 23:44:10 10° N 23:47:29 51° WNW 23:47:29 51° WNW
Cosmos 1842 Rocket 3.5 23:43:23 10° N 23:47:53 76° E 23:48:21 68° SE
SL-16 R/B 3.4 23:43:39 10° NW 23:48:19 27° WSW 23:49:00 26° WSW
COSMOS 2487 3.6 23:49:36 36° NNE 23:49:36 36° NNE 23:51:34 10° NNE
Cosmos 468 Rocket 4.3 23:49:02 47° SE 23:49:54 53° ESE 23:55:03 10° NNE
Nimbus 7 Rocket 4.3 23:44:17 10° NNE 23:50:17 88° WNW 23:52:10 47° SSW
SL-4 R/B 2.8 23:49:35 30° WNW 23:50:47 42° NNW 23:54:21 10° NE
Cosmos 2219 Rocket 2.4 23:45:19 10° NNW 23:50:59 68° ENE 23:53:12 38° SE
SL-27 R/B 3.1 23:53:43 49° NNE 23:53:43 49° NNE 23:56:13 10° NNE
Cosmos 540 Rocket 4.2 23:52:58 36° ESE 23:53:42 38° ESE 23:58:27 10° NE
ATLAS 5 CENTAUR R/B 4.3 23:53:43 10° NW 23:55:42 13° NNW 23:57:49 10° N
